Regional Weather Roundup
Issued by NWS

Home | Current Version | Previous Version | Text Only | Print | Product List | Glossary On
Versions: 1 2 3 4 5 6 7 8 9 10 11 12 13 14 15 16 17 18 19 20 21 22 23 24 25 26 27 28 29 30 31 32 33 34 35 36 37 38 39 40 41 42 43 44 45 46 47 48 49 50
244
ASUS43 KTOP 270708
RWRKS

WEATHER ROUNDUP FOR KANSAS
NATIONAL WEATHER SERVICE GOODLAND KS
200 AM CDT TUE SEP 27 2016

NOTE:  "FAIR" INDICATES FEW OR NO CLOUDS BELOW 12,000 FEET WITH NO
SIGNIFICANT WEATHER AND/OR OBSTRUCTIONS TO VISIBILITY.

KSZ001>006-013>018-027>032-041>047-270800-
NORTHWEST KANSAS

CITY           SKY/WX    TMP DP  RH WIND       PRES   REMARKS
GOODLAND       CLEAR     51  40  65 SW9       30.21F
HAYS           CLEAR     54  37  54 W6        30.14S
HILL CITY      CLEAR     50  44  80 W6        30.14F
RUSSELL        CLEAR     55  43  63 S12       30.12F
$$

KSZ061>065-074>080-084>089-270800-
SOUTHWEST KANSAS

CITY           SKY/WX    TMP DP  RH WIND       PRES   REMARKS
DODGE CITY     CLEAR     55  38  52 SW9       30.18F
ELKHART          N/A     55  34  45 SW9         N/A
GARDEN CITY    CLEAR     53  35  50 NW9       30.19S
GREAT BEND     CLEAR     54  39  58 SW7       30.15F
LIBERAL        CLOUDY    54  36  50 W10       30.22S
PRATT          CLEAR     47  40  75 SW7       30.18S
$$

KSZ066>073-081>083-090>101-270800-
SOUTHEAST KANSAS

CITY           SKY/WX    TMP DP  RH WIND       PRES   REMARKS
CHANUTE        CLEAR     53  48  83 S5        30.14S
COFFEYVILLE    CLEAR     51  49  92 CALM      30.16S
HUTCHINSON     CLEAR     55  48  77 SW7       30.16S
MEDICINE LODGE   N/A     50  47  89 CALM      30.18R
NEWTON         CLEAR    N/A N/A N/A SW8       30.15F
PARSONS        CLEAR     48  47  96 CALM      30.16S
WICHITA INTL   CLEAR     54  47  77 SW5       30.15F
WICHITA JABRA  CLEAR     59  45  59 SW8       30.15F
WICHITA MCCONL CLEAR     56  47  72 SW5       30.15F
WINFIELD       CLEAR     53  51  93 S3        30.18S
$$

KSZ007>012-019>026-033>040-048>060-102>105-270800-
NORTHEAST KANSAS

CITY           SKY/WX    TMP DP  RH WIND       PRES   REMARKS
CONCORDIA      CLEAR     56  44  64 W7        30.11F
EMPORIA        CLEAR     54  45  71 SW7       30.13F
LAWRENCE       CLEAR     49  49 100 CALM      30.11S
MANHATTAN      CLEAR     50  48  93 CALM      30.11F
MARYSVILLE     CLEAR     48  46  93 CALM      30.10F
OLATHE IND     CLEAR     54  47  77 SW7       30.11F
OLATHE EXE     CLEAR     52  49  89 SW5       30.10F
SALINA         CLEAR     55  47  74 S5        30.12F
TOPEKA BILLARD CLEAR     53  49  86 CALM      30.10F
TOPEKA FORBES  CLEAR     57  46  66 SW7       30.10F
$$




USA.gov is the U.S. government's official web portal to all federal, state and local government web resources and services.